Logan, UT

7:41 PM MST on December 09, 2019 (GMT -0700)
Logan-Cache

Weather History for KLGU - October, 2019

Change the Weather History Date:

Wednesday, October 16, 2019

  Actual Average Record
Temperature  
Mean Temperature 49 °F -  
Max Temperature 72 °F 62 °F 79 °F (1958)
Min Temperature 27 °F 32 °F 18 °F (1966)
Degree Days  
Heating Degree Days 16    
Moisture  
Dew Point 27 °F    
Average Humidity 51    
Maximum Humidity 89    
Minimum Humidity 14    
Precipitation  
Precipitation 0.00 in - - ()
Sea Level Pressure  
Sea Level Pressure 30.08 in    
Wind  
Wind Speed 2 mph ()    
Max Wind Speed 6 mph    
Max Gust Speed -    
Visibility 10.0 miles    
Events      
Averages and records for this station are not official NWS values.
T = Trace of Precipitation, MM = Missing Value Source: Averaged Metar Reports

Daily Weather History Graph

Daily Weather History Graph

Search for Another Location

Airport or City:

Astronomy

Oct. 16, 2019 Rise Set
Actual Time 7:40 AM MDT 6:44 PM MDT
Civil Twilight 7:12 AM MDT 7:12 PM MDT
Nautical Twilight 6:40 AM MDT 7:44 PM MDT
Astronomical Twilight 6:07 AM MDT 8:17 PM MDT
Moon 8:38 PM MDT (10/16) 10:16 AM MDT (10/16)
Length of Visible Light 12h 00m
Length of Day
11h 04m
Waning Gibbous, 92% of the Moon is Illuminated
Oct 16
Waning Gibbous
Oct 21
Last Quarter
Oct 27
New
Nov 4
First Quarter
Nov 12
Full

Hourly Weather History & Observations

Time (MDT) Temp. Windchill Dew Point Humidity Pressure Visibility Wind Dir Wind Speed Gust Speed Precip Events Conditions
12:51 AM 37.9 °F 34.4 °F 26.1 °F 62% 30.19 in 10.0 mi ENE 4.6 mph - N/A   Clear
1:51 AM 39.9 °F 37.8 °F 26.1 °F 58% 30.17 in 10.0 mi West 3.5 mph - N/A   Clear
2:51 AM 37.0 °F - 27.0 °F 67% 30.17 in 10.0 mi Calm Calm - N/A   Clear
3:51 AM 33.1 °F 30.0 °F 26.1 °F 75% 30.16 in 10.0 mi NNW 3.5 mph - N/A   Clear
4:51 AM 35.1 °F - 26.1 °F 70% 30.15 in 10.0 mi Calm Calm - N/A   Clear
5:51 AM 27.0 °F 21.6 °F 24.1 °F 89% 30.17 in 10.0 mi North 4.6 mph - N/A   Clear
6:51 AM 35.1 °F - 25.0 °F 67% 30.17 in 10.0 mi Calm Calm - N/A   Clear
7:51 AM 30.0 °F - 24.1 °F 79% 30.20 in 10.0 mi Calm Calm - N/A   Clear
8:51 AM 34.0 °F - 28.9 °F 82% 30.21 in 9.0 mi Calm Calm - N/A   Clear
9:51 AM 41.0 °F 39.0 °F 30.0 °F 65% 30.22 in 10.0 mi NNW 3.5 mph - N/A   Clear
10:51 AM 50.0 °F - 27.0 °F 41% 30.18 in 10.0 mi NE 3.5 mph - N/A   Clear
11:51 AM 55.0 °F - 26.1 °F 33% 30.16 in 10.0 mi WNW 3.5 mph - N/A   Clear
12:51 PM 60.1 °F - 27.0 °F 28% 30.12 in 10.0 mi Calm Calm - N/A   Clear
1:51 PM 64.9 °F - 27.0 °F 24% 30.06 in 10.0 mi NW 4.6 mph - N/A   Clear
2:51 PM 69.1 °F - 24.1 °F 18% 30.03 in 10.0 mi NNE 5.8 mph - N/A   Clear
3:51 PM 71.1 °F - 19.9 °F 14% 30.00 in 10.0 mi NNE 4.6 mph - N/A   Clear
4:51 PM 69.1 °F - 26.1 °F 20% 29.97 in 10.0 mi North 5.8 mph - N/A   Clear
5:51 PM 64.9 °F - 33.1 °F 31% 29.98 in 10.0 mi North 5.8 mph - N/A   Clear
6:51 PM 60.1 °F - 27.0 °F 28% 29.94 in 10.0 mi NNE 5.8 mph - N/A   Clear
7:51 PM 52.0 °F - 30.0 °F 43% 29.97 in 10.0 mi Calm Calm - N/A   Clear
8:51 PM 50.0 °F - 27.0 °F 41% 29.95 in 10.0 mi Calm Calm - N/A   Clear
9:51 PM 42.1 °F 39.2 °F 30.0 °F 62% 29.94 in 10.0 mi North 4.6 mph - N/A   Clear
10:51 PM 42.1 °F 40.2 °F 28.0 °F 58% 29.90 in 10.0 mi NNE 3.5 mph - N/A   Clear
11:51 PM 42.1 °F - 30.9 °F 65% 29.87 in - Calm Calm - N/A   Clear